Location: Beckers Corners
(42.5484°N, 73.8110°W)
Time: 06:39:28
(UTC+00:00)

DIWATA 2B (PO-101) - Pass Details

Date: 08 December 2024
Orbit: 569 x 582 km, 98.1° (Epoch: 18 January)

Event Time Altitude Azimuth Distance (km) Brightness Sun altitude
Rises 22:29:29 0° 4° (N) 2,793 ? -12.1°
Reaches altitude 10° 22:31:45 10° 356° (N) 1,888 ? -12.5°
Maximum altitude 22:35:31 37° 290° (WNW) 903 ? -13.1°
Drops below altitude 10° 22:39:15 10° 222° (SW) 1,868 ? -13.8°
Sets 22:41:29 0° 214° (SW) 2,759 ? -14.1°
